Home > Weather > Rustenburg > Past weeks

Flag for South Africa Past Weather in Rustenburg, South Africa — Yesterday and Last 2 Weeks

Now
46 °F

Cool.


Feels Like: 46 °F
Forecast: 34 / 71 °F
Wind: 2 mph from North

Location: Lanseria Civ / Mil

Current Time: Jul 1, 2016 at 1:10:50 AM

Latest Report: Jun 30, 2016 at 11:00 PM


Visibility: N/A

Pressure: 30.36 "Hg (26.35 "Hg at 1166m altitude)

Humidity: 71%

Dew Point: 37 °F

Location of RustenburgLocation

Past Weather in Rustenburg — Graph

°F

Rustenburg Temperature Yesterday

Maximum temperature yesterday: 66 °F (at 3:00 PM)
Minimum temperature yesterday: 37 °F (at 8:00 AM)
Average temperature yesterday: 52 °F

High & Low Weather Summary for the Past Weeks

 TemperatureHumidityPressure
High72 °F (Jun 19, 2:00 PM)100% (Jun 16, 1:00 AM)30.63 "Hg (Jun 16, 1:00 AM)
Low32 °F (Jun 29, 12:00 AM)20% (Jun 28, 2:00 PM)30.21 "Hg (Jun 16, 2:00 PM)
Average55 °F60%30.39 "Hg
* Reported Jun 16 1:00 AM — Jun 30 11:00 PM, Rustenburg, Weather by CustomWeather, © 2016

Note: Actual official high and low records may vary slightly from our data, if they occured in-between our weather recording intervals... More about our weather records

Advertising

Rustenburg Weather History for the Previous 24 Hours

Scroll right to see more
 ConditionsComfort  
Time TempWeatherWind HumidityBarometerVisibility
11:00 PM
Thu, Jun 30
46 °FCool.2 mph71%30.36 "HgN/A
10:00 PM50 °FClear.No wind62%30.36 "Hg10 mi
9:00 PM48 °FClear.No wind66%30.36 "Hg10 mi
8:00 PM55 °FClear.7 mph47%30.36 "Hg10 mi
7:00 PM57 °FClear.2 mph44%30.36 "Hg10 mi
6:00 PM59 °FClear.6 mph45%30.36 "Hg10 mi
5:00 PM63 °FPassing clouds.9 mph39%30.33 "HgN/A
4:00 PM66 °FPassing clouds.12 mph32%30.33 "HgN/A
3:00 PM66 °FPassing clouds.8 mph30%30.36 "HgN/A
2:00 PM64 °FPassing clouds.8 mph32%30.36 "HgN/A
1:00 PM64 °FPassing clouds.9 mph34%30.39 "HgN/A
12:00 PM63 °FPassing clouds.12 mph34%30.42 "HgN/A
11:00 AM59 °FPassing clouds.7 mph42%30.45 "HgN/A
10:00 AM57 °FSunny.No wind44%30.48 "Hg10 mi
9:00 AM46 °FSunny.No wind66%30.48 "Hg10 mi
8:00 AM37 °FSunny.No wind87%30.45 "Hg10 mi
7:00 AM39 °FSunny.3 mph75%30.42 "Hg10 mi
6:00 AM39 °FSunny.No wind75%30.42 "Hg10 mi
5:00 AM39 °FClear.No wind75%30.39 "Hg10 mi
4:00 AM39 °FChilly.3 mph75%30.39 "HgN/A
1:00 AM43 °FQuite cool.No wind71%30.42 "HgN/A
Weather by CustomWeather, © 2016

See weather overviewHow to use our weather pages